• In Belarus
  • List of Countries
  • For 7 days
  • Water Temperature
  • Satellite Maps
  • Weather Map
  • Weather Widgets
  • user-avatar
    Login

    Hourly Weather Cochabamba

    Today, 18 January, Thursday

    Time Temperature Precipitation Wind Pressure Humidity
    00:00 +16°C° 0.1 mm 2 mps 556 mmHg 75%
    01:00 +16°C° 0.1 mm 2 mps 556 mmHg 75%
    02:00 +15°C° 0.1 mm 1 mps 556 mmHg 75%
    03:00 +15°C° 0.1 mm 1 mps 556 mmHg 76%
    04:00 +15°C° 0.1 mm 1 mps 555 mmHg 76%
    05:00 +14°C° 0.1 mm 1 mps 555 mmHg 76%
    06:00 +15°C° 0.2 mm 1 mps 556 mmHg 74%
    07:00 +16°C° 0.2 mm 1 mps 556 mmHg 71%
    08:00 +16°C° 0.2 mm 1 mps 557 mmHg 69%
    09:00 +18°C° 0.3 mm 1 mps 557 mmHg 64%
    10:00 +19°C° 0.3 mm 2 mps 558 mmHg 60%
    11:00 +20°C° 0.3 mm 2 mps 558 mmHg 55%
    12:00 +20°C° 0.2 mm 2 mps 558 mmHg 53%
    13:00 +21°C° 0.2 mm 3 mps 558 mmHg 52%
    14:00 +22°C° 0.2 mm 3 mps 557 mmHg 50%
    15:00 +21°C° 0.3 mm 3 mps 557 mmHg 54%
    16:00 +21°C° 0.3 mm 3 mps 556 mmHg 57%
    17:00 +20°C° 0.3 mm 3 mps 556 mmHg 61%
    18:00 +19°C° 0.3 mm 3 mps 556 mmHg 65%
    19:00 +18°C° 0.3 mm 2 mps 556 mmHg 69%
    20:00 +17°C° 0.3 mm 2 mps 555 mmHg 74%
    21:00 +16°C° 0.1 mm 2 mps 556 mmHg 75%
    22:00 +16°C° 0.1 mm 2 mps 556 mmHg 76%
    23:00 +15°C° 0.1 mm 1 mps 556 mmHg 77%

    Tomorrow, 19 January, Friday

    Time Temperature Precipitation Wind Pressure Humidity
    00:00 +15°C° 0.1 mm 1 mps 556 mmHg 78%
    01:00 +15°C° 0.1 mm 1 mps 556 mmHg 78%
    02:00 +14°C° 0.1 mm 1 mps 555 mmHg 78%
    03:00 +14°C° 0.3 mm 1 mps 555 mmHg 78%
    04:00 +14°C° 0.3 mm 1 mps 555 mmHg 78%
    05:00 +13°C° 0.3 mm 0 mps 555 mmHg 78%
    06:00 +14°C° 0.7 mm 1 mps 556 mmHg 77%
    07:00 +14°C° 0.7 mm 1 mps 556 mmHg 77%
    08:00 +15°C° 0.7 mm 1 mps 557 mmHg 76%
    09:00 +15°C° 0.8 mm 1 mps 557 mmHg 74%
    10:00 +16°C° 0.8 mm 1 mps 557 mmHg 71%
    11:00 +16°C° 0.8 mm 1 mps 557 mmHg 68%
    12:00 +18°C° 0.2 mm 2 mps 557 mmHg 64%
    13:00 +19°C° 0.2 mm 2 mps 557 mmHg 60%
    14:00 +20°C° 0.2 mm 3 mps 557 mmHg 55%
    15:00 +20°C° 0.3 mm 3 mps 556 mmHg 57%
    16:00 +19°C° 0.3 mm 3 mps 556 mmHg 59%
    17:00 +19°C° 0.3 mm 3 mps 555 mmHg 61%
    18:00 +18°C° 0.3 mm 3 mps 555 mmHg 65%
    19:00 +17°C° 0.3 mm 3 mps 555 mmHg 70%
    20:00 +16°C° 0.3 mm 2 mps 555 mmHg 75%
    21:00 +15°C° 0.1 mm 2 mps 555 mmHg 76%
    22:00 +15°C° 0.1 mm 2 mps 555 mmHg 77%
    23:00 +15°C° 0.1 mm 1 mps 556 mmHg 78%

    Day after tomorrow, 20 January, Saturday

    Time Temperature Precipitation Wind Pressure Humidity
    00:00 +14°C° 0 mm 1 mps 555 mmHg 78%
    01:00 +14°C° 0 mm 1 mps 555 mmHg 78%
    02:00 +14°C° 0 mm 1 mps 554 mmHg 79%
    03:00 +13°C° 0.1 mm 1 mps 554 mmHg 79%
    04:00 +13°C° 0.1 mm 1 mps 554 mmHg 79%
    05:00 +13°C° 0.1 mm 1 mps 554 mmHg 79%
    06:00 +14°C° 0.2 mm 1 mps 555 mmHg 74%
    07:00 +15°C° 0.2 mm 1 mps 556 mmHg 70%
    08:00 +16°C° 0.2 mm 1 mps 556 mmHg 66%
    09:00 +17°C° 0.3 mm 2 mps 557 mmHg 62%
    10:00 +18°C° 0.3 mm 2 mps 557 mmHg 58%
    11:00 +19°C° 0.3 mm 3 mps 558 mmHg 53%
    12:00 +20°C° 0.2 mm 3 mps 557 mmHg 54%
    13:00 +20°C° 0.2 mm 3 mps 556 mmHg 55%
    14:00 +21°C° 0.2 mm 4 mps 556 mmHg 56%
    15:00 +20°C° 0.1 mm 4 mps 555 mmHg 57%
    16:00 +20°C° 0.1 mm 4 mps 555 mmHg 59%
    17:00 +20°C° 0.1 mm 4 mps 554 mmHg 60%
    18:00 +19°C° 0.1 mm 4 mps 554 mmHg 65%
    19:00 +17°C° 0.1 mm 3 mps 554 mmHg 69%
    20:00 +16°C° 0.1 mm 3 mps 554 mmHg 74%
    21:00 +16°C° 0.1 mm 2 mps 554 mmHg 74%
    22:00 +16°C° 0.1 mm 2 mps 555 mmHg 74%
    23:00 +16°C° 0.1 mm 2 mps 555 mmHg 74%

    21 January, Sunday

    Time Temperature Precipitation Wind Pressure Humidity
    00:00 +15°C° 0 mm 2 mps 554 mmHg 75%
    01:00 +15°C° 0 mm 2 mps 554 mmHg 76%
    02:00 +15°C° 0 mm 2 mps 553 mmHg 77%
    03:00 +15°C° 0 mm 2 mps 553 mmHg 77%
    04:00 +15°C° 0 mm 2 mps 553 mmHg 77%
    05:00 +14°C° 0 mm 2 mps 553 mmHg 77%
    06:00 +15°C° 0 mm 2 mps 554 mmHg 73%
    07:00 +16°C° 0 mm 3 mps 554 mmHg 70%
    08:00 +17°C° 0 mm 3 mps 555 mmHg 66%
    09:00 +18°C° 0 mm 3 mps 555 mmHg 62%
    10:00 +19°C° 0 mm 3 mps 556 mmHg 57%
    11:00 +21°C° 0 mm 3 mps 556 mmHg 52%
    12:00 +21°C° 0.1 mm 4 mps 556 mmHg 53%
    13:00 +21°C° 0.1 mm 4 mps 555 mmHg 55%
    14:00 +21°C° 0.1 mm 4 mps 554 mmHg 56%
    15:00 +21°C° 0.1 mm 4 mps 554 mmHg 58%
    16:00 +21°C° 0.1 mm 4 mps 553 mmHg 59%
    17:00 +20°C° 0.1 mm 4 mps 553 mmHg 61%
    18:00 +19°C° 0.1 mm 4 mps 553 mmHg 65%
    19:00 +18°C° 0.1 mm 3 mps 553 mmHg 70%
    20:00 +17°C° 0.1 mm 3 mps 553 mmHg 74%
    21:00 +17°C° 0 mm 2 mps 553 mmHg 74%
    22:00 +16°C° 0 mm 2 mps 554 mmHg 74%
    23:00 +16°C° 0 mm 2 mps 554 mmHg 75%

    22 January, Monday

    Time Temperature Precipitation Wind Pressure Humidity
    00:00 +16°C° 0 mm 2 mps 554 mmHg 75%
    01:00 +16°C° 0 mm 2 mps 553 mmHg 76%
    02:00 +15°C° 0 mm 2 mps 552 mmHg 76%
    03:00 +15°C° 0 mm 2 mps 552 mmHg 76%
    04:00 +15°C° 0 mm 2 mps 552 mmHg 76%
    05:00 +14°C° 0 mm 2 mps 552 mmHg 76%
    06:00 +15°C° 0 mm 2 mps 553 mmHg 72%
    07:00 +16°C° 0 mm 2 mps 553 mmHg 69%
    08:00 +17°C° 0 mm 2 mps 554 mmHg 65%
    09:00 +18°C° 0 mm 3 mps 555 mmHg 59%
    10:00 +20°C° 0 mm 3 mps 555 mmHg 53%
    11:00 +21°C° 0 mm 3 mps 556 mmHg 47%
    12:00 +21°C° 0.1 mm 4 mps 555 mmHg 49%
    13:00 +22°C° 0.1 mm 4 mps 555 mmHg 50%
    14:00 +22°C° 0.1 mm 4 mps 554 mmHg 52%
    15:00 +21°C° 0.1 mm 4 mps 553 mmHg 54%
    16:00 +21°C° 0.1 mm 4 mps 553 mmHg 56%
    17:00 +21°C° 0.1 mm 4 mps 552 mmHg 59%
    18:00 +19°C° 0.1 mm 4 mps 552 mmHg 63%
    19:00 +18°C° 0.1 mm 3 mps 552 mmHg 68%
    20:00 +17°C° 0.1 mm 3 mps 552 mmHg 73%
    21:00 +16°C° 0 mm 3 mps 552 mmHg 73%
    22:00 +16°C° 0 mm 3 mps 553 mmHg 74%
    23:00 +15°C° 0 mm 2 mps 553 mmHg 75%

    23 January, Tuesday

    Time Temperature Precipitation Wind Pressure Humidity
    00:00 +15°C° 0 mm 2 mps 553 mmHg 75%
    01:00 +15°C° 0 mm 2 mps 552 mmHg 75%
    02:00 +14°C° 0 mm 2 mps 552 mmHg 75%
    03:00 +14°C° 0 mm 2 mps 552 mmHg 75%
    04:00 +14°C° 0 mm 2 mps 552 mmHg 75%
    05:00 +14°C° 0 mm 2 mps 552 mmHg 75%
    06:00 +15°C° 0 mm 2 mps 553 mmHg 70%
    07:00 +16°C° 0 mm 2 mps 554 mmHg 65%
    08:00 +17°C° 0 mm 2 mps 555 mmHg 60%
    09:00 +19°C° 0 mm 2 mps 555 mmHg 55%
    10:00 +20°C° 0 mm 3 mps 556 mmHg 51%
    11:00 +22°C° 0 mm 4 mps 556 mmHg 47%
    12:00 +22°C° 0.1 mm 4 mps 556 mmHg 47%
    13:00 +23°C° 0.1 mm 4 mps 555 mmHg 47%
    14:00 +23°C° 0.1 mm 4 mps 555 mmHg 47%
    15:00 +22°C° 0.2 mm 4 mps 554 mmHg 50%
    16:00 +22°C° 0.2 mm 4 mps 553 mmHg 54%
    17:00 +21°C° 0.2 mm 4 mps 553 mmHg 58%
    18:00 +20°C° 0.1 mm 4 mps 553 mmHg 63%
    19:00 +18°C° 0.1 mm 4 mps 553 mmHg 68%
    20:00 +17°C° 0.1 mm 3 mps 553 mmHg 73%
    21:00 +17°C° 0 mm 3 mps 553 mmHg 74%
    22:00 +16°C° 0 mm 2 mps 553 mmHg 74%
    23:00 +16°C° 0 mm 2 mps 553 mmHg 75%
    Show more